TIANYI 51

基本信息
目录编号:
100741
目录名称:
TIANYI 51
国际标识:
2026-215A
轨道中心:
EARTH
卫星名称:
TIANYI 51
卫星全名:
TIANYI 51
卫星状态:
在轨 (已飞行3 天)
发射日期:
2026-09-17 UTC
国别 :
中国 (CN)
星等 :
--
该卫星已列入 空间交会检测服务 Space Conjunction Data Service (SCDS) ,当前飞行风险评估等级: 无高风险
轨道信息
数据来源 国际轨道数据 AOE轨道数据
星历时间 2026-09-20T23:16:21+0800
7小时前
查看轨道信息
2026-09-19T15:00:00+0800
1天前
查看轨道信息
半长轴 6878.692km 6878.71km
偏心率 0.0003047 0.0003091
轨道倾角 55.022° 55.024°
近地点辐角 107.002° 116.869°
升交点赤经 337.773° 343.661°
平近点角 253.133° 73.393°
近地点 498.459km 498.446km
远地点 502.651km 502.7km
周期 94.628分钟 94.628分钟
每日圈数 15.217525 15.217465
详细信息
使用方式:
暂无
2D轨道图
3D轨道图
轨道高度分析图
轨道倾角分析图
轨道综合分析图
查看轨道综合分析图
与全量物体交会距离演化趋势 订阅飞行安全评估服务
与全量物体交会风险概率演化趋势 订阅飞行安全评估服务